{"data":{"norad_id":63932,"epoch":"2026-05-25T02:17:44.386368Z","epoch_age_seconds":57017,"freshness":"FRESH","line1":"1 63932U 25098G   26145.09565262  .00002582  00000+0  22409-3 0  9996","line2":"2 63932  70.0010  81.9620 0003345 268.2539  91.8237 14.98335428 58010","mean_motion":14.98335428,"eccentricity":0.0003345,"inclination_deg":70.001,"raan_deg":81.962,"arg_perigee_deg":268.2539,"mean_anomaly_deg":91.8237,"bstar":0.00022409,"rev_number":5801,"period_min":96.106650960135,"perigee_km":569.71427144561,"apogee_km":574.36393926009,"semimajor_km":6950.1761053528,"source":"CELESTRAK","updated_at":"2026-05-25T13:38:20.183646Z"}}